Regional Weather Roundup
Issued by NWS

Home | Current Version | Previous Version | Text Only | Print | Product List | Glossary On
Versions: 1 2 3 4 5 6 7 8 9 10 11 12 13 14 15 16 17 18 19 20 21 22 23 24 25 26 27 28 29 30 31 32 33 34 35 36 37 38 39 40 41 42 43 44 45 46 47 48 49 50
000
ASUS43 KMKX 270300
RWRWI

WISCONSIN REGIONAL WEATHER ROUNDUP
NATIONAL WEATHER SERVICE MILWAUKEE/SULLIVAN WI
1000 PM CDT MON JUN 26 2017

NOTE: "FAIR" INDICATES FEW OR NO CLOUDS BELOW 12,000 FEET WITH NO
SIGNIFICANT WEATHER AND/OR OBSTRUCTIONS TO VISIBILITY.

WIZ001-002-006>008-014>016-023>028-270400-
NORTHWEST WISCONSIN

CITY           SKY/WX    TMP DP  RH WIND       PRES   REMARKS
SUPERIOR ARPT  NOT AVBL
ASHLAND        CLOUDY    51  47  86 SW7       30.05R
HAYWARD        CLOUDY    56  50  80 S3        30.08R
SIREN          PTCLDY    55  50  85 CALM      30.08S
CUMBERLAND     PTCLDY    54  50  87 CALM      30.09S
RICE LAKE      CLEAR     54  52  93 CALM      30.10S
CHETEK         CLEAR     51  51 100 CALM      30.09S FOG
LADYSMITH      CLEAR     55  49  82 W5        30.09S
EAU CLAIRE     NOT AVBL
MENOMONIE      MOCLDY    59  49  69 SW5       30.09S
NEW RICHMOND   CLEAR     56  49  75 CALM      30.10R
OSCEOLA        CLEAR     55  48  79 CALM      30.12R
$$

WIZ003>005-009-010-017-018-270400-
NORTH CENTRAL WISCONSIN

CITY           SKY/WX    TMP DP  RH WIND       PRES   REMARKS
MANITOWISH WTR CLEAR     50  49  96 W5        30.04S
ARBOR VITAE    CLEAR     52  47  82 CALM      30.05R
WOODRUFF       CLEAR     52  47  82 CALM      30.05R
RHINELANDER    CLEAR     48  48 100 W6        30.05R
EAGLE RIVER    PTCLDY    49  48  99 CALM      30.03S
LAND O LAKES   CLEAR     49  47  93 CALM      30.05R
PHILLIPS       PTCLDY    49  49 100 CALM      30.06S
TOMAHAWK       NOT AVBL
MEDFORD        CLEAR     53  47  79 W6        30.07R
MERRILL        CLEAR     51  46  84 W3        30.07R
$$

WIZ029-030-035-036-043>047-270400-
CENTRAL WISCONSIN

CITY           SKY/WX    TMP DP  RH WIND       PRES   REMARKS
WAUSAU         CLEAR     54  47  77 CALM      30.04S
MOSINEE        CLEAR     54  46  76 W5        30.07R
MARSHFIELD     PTCLDY    53  45  74 W5        30.07R
STEVENS POINT  CLEAR     55  46  72 CALM      30.06S
WAUPACA        CLEAR     55  51  83 CALM      30.06R
WAUTOMA        CLEAR     51  48  89 CALM      30.08R
WISC RAPIDS    CLEAR     52  47  83 CALM      30.08R
CAMP DOUGLAS   NOT AVBL
$$

WIZ011>013-019>022-031-037>040-048>050-270400-
NORTHEAST WISCONSIN

CITY           SKY/WX    TMP DP  RH WIND       PRES   REMARKS
ANTIGO         PTCLDY    54  47  77 NW8       30.05S
SHAWANO        CLEAR     56  50  80 S3        30.04R
OCONTO         CLEAR     51  50  97 CALM      30.03R
STURGEON BAY     N/A     53  51  93 CALM        N/A
GREEN BAY      CLEAR     54  53  97 SW6       30.04R
MANITOWOC      NOT AVBL
APPLETON       PTCLDY    54  46  76 VRB5      30.04S
CLINTONVILLE   PTCLDY    50  46  87 CALM      30.04S
OSHKOSH        CLEAR     51  48  89 CALM      30.06R
$$

WIZ032>034-041-042-053>061-270400-
SOUTHWEST WISCONSIN

CITY           SKY/WX    TMP DP  RH WIND       PRES   REMARKS
LA CROSSE      CLEAR     63  49  60 CALM      30.10R
SPARTA         CLEAR     51  48  89 CALM      30.10R
VIROQUA        CLEAR     57  47  69 NW3       30.10R
BOSCOBEL       MOCLDY    55  49  80 CALM      30.10R
PRAIRIE DU CHI CLEAR     57  47  69 CALM      30.10R
PLATTEVILLE    CLEAR     58  45  62 W3        30.12R
$$

WIZ056-057-062-063-064-067-068-270400-
SOUTH CENTRAL WISCONSIN

CITY           SKY/WX    TMP DP  RH WIND       PRES   REMARKS
REEDSBURG      MOCLDY    56  49  79 CALM      30.08R
BARABOO/DELLS  MOCLDY    53  49  86 CALM      30.08R
LONE ROCK      NOT AVBL
MINERAL POINT  CLEAR     61  45  55 CALM      30.10R
MADISON        PTCLDY    53  47  79 W3        30.08R
MIDDLETON      CLEAR     54  49  82 CALM      30.09R
WATERTOWN      NOT AVBL
MONROE         CLEAR     59  43  55 NW3       30.10R
JANESVILLE     CLEAR     55  45  67 CALM      30.08R
$$

WIZ051-052-058>065-066-070>072-270400-
SOUTHEAST WISCONSIN

CITY           SKY/WX    TMP DP  RH WIND       PRES   REMARKS
MILWAUKEE      MOCLDY    60  48  64 NW8       30.07R
WAUKESHA       NOT AVBL
MILWAUKEE/TIMM MOCLDY    55  45  67 NW6       30.07R
RACINE         PTCLDY    59  45  59 NW7       30.08R
KENOSHA        CLOUDY    59  46  62 NW5       30.07R
FOND DU LAC    CLEAR     53  47  79 W3        30.07R
SHEBOYGAN      CLEAR     53  51  93 W3        30.06R
WEST BEND      CLEAR     54  50  87 NW3       30.07R
JUNEAU         CLEAR     55  46  69 CALM      30.09R
$$

LSZ147-162-270400-
LAKE SUPERIOR

STATION/POSITION TIME  TEMP    WIND        PRES    WAVE
                       AIR SEA DIR/SP/G            HT/PER
                 (UTC) (F)     (DEG/KT/KT) (MB)    (FT/S)
W MID LAKE BUOY  0150   47 39  260/  8/  8 1015.9F   1
DEVILS ISLAND    0200   55     250/ 13/ 15 1016.6F
PORT WING        0100   57     220/  8/ 19 1017.3F
SAXON HARBOR     0240   58     190/  5/  7 1016.6S
$$

LMZ867-665-643>646-270400-
LAKE MICHIGAN

STATION/POSITION TIME  TEMP    WIND        PRES    WAVE
                       AIR SEA DIR/SP/G            HT/PER
                 (UTC) (F)     (DEG/KT/KT) (MB)    (FT/S)
CHAMBERS ISLAND  0240   53     240/  2/  4 1015.9R
S GREEN BAY BUOY 0230   60     260/  8/ 10 1016.3R
N MID LAKE BUOY  0150   57 56  270/  6/  8 1016.1F   1/ 3
NORTHPORT PIER   0240   55     270/  3/  4 1015.9R
KEWAUNEE LAKESHO 0230   55     290/  3/  3 1016.4R
SHEBOYGAN LAKESH 0200   57     310/  7/  8 1017.1R
PORT WASHINGTON  0240   58     320/  1/  4 1018.6R
ATWATER BUOY     0109   60 56  320/ 14/ 17 1017.3R
MILWAUKEE LAKESH 0230   60     320/  7/  8   N/A
S MID LAKE BUOY  0150   59 61  350/  8/ 10 1016.9F   2/ 5
KENOSHA   LAKESH 0200   62     310/  5/  8 1017.3
$$

TC  - TEMPERATURE IN CELSIUS
VSB - VISIBILITY IN STATUTE MILES
WCI - WIND CHILL INDEX
HX  - HEAT INDEX





USA.gov is the U.S. government's official web portal to all federal, state and local government web resources and services.